Location: Bothwell
(42.3833°S, 147.0000°E)
Time: 21:48:31
(UTC+11:00)

RS-44 - Pass Details

Date: 26 September 2022
Orbit: 1175 x 1510 km, 82.5° (Epoch: 29 November)

Event Time Altitude Azimuth Distance (km) Brightness Sun altitude
Exits shadow 21:41:30 22° 129° (SE) 2,848 ? -35.9°
Drops below altitude 10° 21:45:20 10° 151° (SSE) 3,684 ? -36.4°
Sets 21:48:51 0° 162° (SSE) 4,684 ? -36.8°
